TimeMST,TemperatureF,Dew PointF,Humidity,Sea Level PressureIn,VisibilityMPH,Wind Direction,Wind SpeedMPH,Gust SpeedMPH,PrecipitationIn,Events,Conditions,WindDirDegrees,DateUTC
12:46 AM,55.4,48.2,77,29.99,10.0,NE,8.1,-,N/A,,Mostly Cloudy,40,2013-01-18 07:46:00
1:42 AM,55.4,48.2,77,29.99,10.0,NE,8.1,-,N/A,,Mostly Cloudy,40,2013-01-18 08:42:00
2:47 AM,55.4,48.2,77,29.98,10.0,NNW,5.8,-,N/A,,Overcast,340,2013-01-18 09:47:00
3:50 AM,55.4,46.4,72,29.97,10.0,North,8.1,-,N/A,,Overcast,360,2013-01-18 10:50:00
4:45 AM,55.4,46.4,72,29.96,10.0,North,9.2,-,N/A,,Mostly Cloudy,10,2013-01-18 11:45:00
5:42 AM,55.4,46.4,72,29.96,10.0,North,6.9,-,N/A,,Mostly Cloudy,10,2013-01-18 12:42:00
6:44 AM,57.2,46.4,67,29.98,12.0,NNE,5.8,-,N/A,,Overcast,20,2013-01-18 13:44:00
7:44 AM,57.2,46.4,67,29.99,12.0,NNE,8.1,-,N/A,,Overcast,20,2013-01-18 14:44:00
8:42 AM,62.6,46.4,55,30.01,12.0,NNE,8.1,-,N/A,,Overcast,30,2013-01-18 15:42:00
9:46 AM,66.2,48.2,52,30.03,15.0,ESE,5.8,-,N/A,,Overcast,110,2013-01-18 16:46:00
10:46 AM,71.6,44.6,38,30.01,15.0,NNE,5.8,-,N/A,,Overcast,30,2013-01-18 17:46:00
11:40 AM,77.0,46.4,34,30.01,25.0,SW,8.1,-,N/A,,Overcast,230,2013-01-18 18:40:00
12:41 PM,78.8,37.4,23,29.95,12.0,NNE,9.2,-,N/A,,Mostly Cloudy,30,2013-01-18 19:41:00
1:40 PM,80.6,37.4,21,29.94,15.0,South,8.1,-,N/A,,Mostly Cloudy,170,2013-01-18 20:40:00
2:42 PM,77.0,55.4,47,29.93,15.0,SW,8.1,-,N/A,,Mostly Cloudy,220,2013-01-18 21:42:00
3:40 PM,78.8,48.2,34,29.93,15.0,SW,6.9,-,N/A,,Mostly Cloudy,220,2013-01-18 22:40:00
4:44 PM,75.2,48.2,38,29.95,15.0,WSW,11.5,-,N/A,,Mostly Cloudy,250,2013-01-18 23:44:00
5:42 PM,71.6,48.2,43,29.96,14.0,NW,6.9,-,N/A,,Mostly Cloudy,310,2013-01-19 00:42:00
6:41 PM,64.4,46.4,52,29.97,10.0,Calm,Calm,-,N/A,,Mostly Cloudy,0,2013-01-19 01:41:00
7:44 PM,60.8,46.4,59,29.98,10.0,West,5.8,-,N/A,,Mostly Cloudy,270,2013-01-19 02:44:00
8:46 PM,60.8,46.4,59,30.00,10.0,West,8.1,-,N/A,,Scattered Clouds,280,2013-01-19 03:46:00
9:49 PM,57.2,42.8,59,30.00,10.0,North,8.1,-,N/A,,Clear,360,2013-01-19 04:49:00
10:40 PM,55.4,44.6,67,30.01,10.0,North,9.2,-,N/A,,Clear,10,2013-01-19 05:40:00
11:41 PM,53.6,44.6,72,29.99,10.0,NNE,9.2,-,N/A,,Clear,30,2013-01-19 06:41:00